Starlink 11475

operational
NORAD ID: 62226 Int'l Des: 2024-231 Owner: SPXS Country: US Constellation: starlink
LEOCIRCULAR

关于 Starlink 11475

正在加载描述...

实时位置

正在加载3D地球...

即将过境

高度历史

Altitude vs Time

uPlot chart will show altitude changes over time

两行轨道根数

1 62226U 24231J 25259.99967804 .00148397 00000-0 12068-2 0 9996
2 62226 53.1568 237.3361 0001285 89.3140 270.8025 15.69731996 46138
Epoch: Sep 16, 2025 • Age: 21 hours

当前状态

高度 376.4 km
速度 7.68 km/s
星下点 -48.59°S, 159.95°E
发射日期 Dec 5, 2024
运行时间 0.7 years
类型 internet

技术详情

分类 Payload
质量 960.00 kg
干质量 910.00 kg
总质量 960.00 kg
长度 0.30 m
直径 4.10 m
跨度 29.00 m
形状 Box + pan
制造商 SPXS
平台类型 Starlink V2MD
阶段状态 In Orbit
所有者/国家 SPXS/US

大型星座

Loading constellations...